Weather History for Somerville, NJ

Change the Weather History Date:

Friday, November 30, 2012

  Actual Average Record
Temperature  
Mean Temperature 34 °F -  
Max Temperature 46 °F 45 °F 71 °F (1933)
Min Temperature 21 °F 28 °F 12 °F (1976)
Degree Days  
Heating Degree Days 32    
Moisture  
Dew Point 27 °F    
Average Humidity 76    
Maximum Humidity 92    
Minimum Humidity 48    
Precipitation  
Precipitation 0.00 in - - ()
Sea Level Pressure  
Sea Level Pressure 30.38 in    
Wind  
Wind Speed 1 mph (NNE)    
Max Wind Speed 5 mph    
Max Gust Speed -    
Visibility 8 miles    
Events      
Averages and records for this station are not official NWS values.
T = Trace of Precipitation, MM = Missing Value Source: NWS Daily Summary

Daily Weather History Graph

Daily Weather History Graph

Search for Another Location

Airport:

Trip Planner

Search our weather history database for the weather conditions in past years. The results will help you decide how hot, cold, wet, or windy it might be!

Date:

Astronomy

Nov. 30, 2012 Rise Set
Actual Time 7:02 AM EST 4:32 PM EST
Civil Twilight 6:32 AM EST 5:02 PM EST
Nautical Twilight 5:58 AM EST 5:36 PM EST
Astronomical Twilight 5:25 AM EST 6:09 PM EST
Moon 6:25 PM EST (11/30) 8:32 AM EST (11/30)
Length of Visible Light 10h 30m
Length of Day
9h 29m
Waning Gibbous, 96% of the Moon is Illuminated
Nov 30
Waning Gibbous
Dec 6
Last Quarter
Dec 13
New
Dec 20
First Quarter
Dec 28
Full

Hourly Weather History & Observations

Time (EST) Temp. Windchill Dew Point Humidity Pressure Visibility Wind Dir Wind Speed Gust Speed Precip Events Conditions
12:53 AM 23.0 °F - 21.0 °F 92% 30.33 in 6.0 mi Calm Calm - N/A   Clear
1:53 AM 24.1 °F - 21.0 °F 88% 30.34 in 6.0 mi Calm Calm - N/A   Clear
2:53 AM 23.0 °F - 21.0 °F 92% 30.34 in 5.0 mi Calm Calm - N/A   Clear
3:53 AM 23.0 °F - 21.0 °F 92% 30.32 in 6.0 mi Calm Calm - N/A   Clear
4:53 AM 21.9 °F - 19.9 °F 92% 30.33 in 6.0 mi Calm Calm - N/A   Clear
5:53 AM 21.9 °F - 19.0 °F 89% 30.35 in 6.0 mi Calm Calm - N/A   Clear
6:53 AM 21.0 °F 16.2 °F 19.0 °F 92% 30.36 in 6.0 mi NW 3.5 mph - N/A   Clear
7:53 AM 25.0 °F 20.7 °F 23.0 °F 92% 30.38 in 5.0 mi NW 3.5 mph - N/A   Overcast
8:53 AM 28.9 °F - 25.0 °F 85% 30.39 in 5.0 mi Calm Calm - N/A   Scattered Clouds
9:53 AM 30.9 °F - 28.0 °F 89% 30.40 in 5.0 mi Calm Calm - N/A   Overcast
10:53 AM 36.0 °F - 28.9 °F 76% 30.39 in 6.0 mi Calm Calm - N/A   Haze
11:53 AM 41.0 °F - 28.9 °F 62% 30.38 in 8.0 mi Calm Calm - N/A   Scattered Clouds
12:53 PM 45.0 °F - 26.1 °F 48% 30.37 in 10.0 mi Calm Calm - N/A   Overcast
1:53 PM 45.0 °F - 28.0 °F 52% 30.36 in 9.0 mi Calm Calm - N/A   Overcast
2:53 PM 46.0 °F 43.9 °F 28.0 °F 50% 30.36 in 9.0 mi NE 4.6 mph - N/A   Scattered Clouds
3:53 PM 44.1 °F 41.5 °F 28.0 °F 53% 30.36 in 8.0 mi SE 4.6 mph - N/A   Clear
4:53 PM 39.9 °F - 28.9 °F 65% 30.38 in 10.0 mi Calm Calm - N/A   Clear
5:53 PM 36.0 °F - 28.9 °F 76% 30.38 in 9.0 mi Calm Calm - N/A   Partly Cloudy
6:40 PM 35.6 °F - 28.4 °F 75% 30.38 in 9.0 mi Calm Calm - N/A   Mostly Cloudy
6:53 PM 37.9 °F - 28.9 °F 70% 30.40 in 10.0 mi Calm Calm - N/A   Mostly Cloudy
7:08 PM 33.8 °F 30.8 °F 28.4 °F 81% 30.40 in 10.0 mi North 3.5 mph - N/A   Scattered Clouds
7:30 PM 35.6 °F - 28.4 °F 75% 30.39 in 10.0 mi Calm Calm - N/A   Mostly Cloudy
7:53 PM 36.0 °F - 30.0 °F 79% 30.40 in 10.0 mi Calm Calm - N/A   Mostly Cloudy
8:53 PM 39.9 °F 37.8 °F 32.0 °F 73% 30.41 in 10.0 mi NE 3.5 mph - N/A   Overcast
9:53 PM 39.9 °F 37.8 °F 32.0 °F 73% 30.41 in 10.0 mi NE 3.5 mph - N/A   Overcast
10:36 PM 39.2 °F 35.9 °F 32.0 °F 75% 30.41 in 10.0 mi Variable 4.6 mph - N/A   Mostly Cloudy
10:45 PM 39.2 °F 37.0 °F 32.0 °F 75% 30.41 in 10.0 mi Variable 3.5 mph - N/A   Mostly Cloudy
10:53 PM 39.0 °F 36.8 °F 32.0 °F 76% 30.42 in 10.0 mi NE 3.5 mph - N/A   Mostly Cloudy
11:53 PM 39.0 °F 36.8 °F 32.0 °F 76% 30.43 in 10.0 mi Variable 3.5 mph - N/A   Overcast